STARLINK-34050, 64331

Orbit data source: Space-Track

STARLINK-34050, 64331 is a payload satellite owned by SpaceX/Seattle (US) in LEO that was launched on Tue, 10 Jun 2025 UTC via an FALCON 9 launch vehicle from the Air Force Eastern Test Range (AFETR). Payload-class satellites include a variety of spacecraft equipped with specific instruments for various scientific and technological missions. These include communications satellites like Starlink; space stations such as the ISS; scientific satellites like the Hubble; Earth observation satellites from companies like Planet Labs, Umbra, and HawkEye 360; GPS; miniature CubeSats for education and research; and military/defense satellites.

Loading next visibility...
Identifier
64331, 2025-124Q
Orbit
LEO
Last TLE update
10 hours ago
Origin
Manufacturer
SpaceX/Seattle
Mission
Operational spacecraft
Bus & Motor
STARLINK V2MO, Unknown motor
Mass
575 kg wet, ~530 kg dry
Launch date (UTC)
2025-06-10 (3 weeks ago)
Launch vehicle
FALCON 9
Launch site
Air Force Eastern Test Range (AFETR)
Object type
Payload
Rocket body
Debris
Shape & HBR
Unknown
Radar Cross Section
Large (>1 m²)

Expand to show TLE details & history

TLE from 10 hours ago
0 STARLINK-34050
1 64331U 25124Q   25182.16668981  .00081526  00000-0  13839-2 0  9992
2 64331  42.9999 107.1633 0001567 277.2494 159.6715 15.50520980  4313
Epoch: 2025-07-01T04:00Z
TLE epoch observation values (Epoch: 2025-07-01T04:00:01.999Z)
Latitude
41.78645°
Longitude
-159.94411°
Altitude
419.037 km
Speed
7.665 km/s
True Right ascension
11h 58m 07s
True Declination
41° 36' 26"
Sunlit
Object was in daylight at epoch
Visualization orbit readout
Latitude
-28.28278°
Longitude
-19.71134°
Altitude
421.775 km
Speed
7.659 km/s
Apparent Right ascension
18h 03m 02s
Apparent Declination
-51° 22' 17"
Sunlit
Object is in full shadow
Visualization observer readout
Local Sidereal Time
01:33:25
Azimuth
232.312° WSW
Elevation
-43.255°
Doppler factor
1
Orbital elements
Apogee altitude
418.233 km
Perigee altitude
416.104 km
Semi-major axis
6,795.305 km
Eccentricity
0.00016
Inclination
42.9999°
RAAN
107.1633°
Arg. of periapsis
277.2494°
True anomaly
Unknown
Mean anomaly
159.6715°
Eccentric anomaly
Unknown
Mean motion
3.87463 °/min
Orbital period
92.91 mins
BSTAR
0.0013839
Loading maneuver chart data...
Loading SW <> Apogee altitude chart data...
Loading historical data...
Loading historical data...
Loading historical data...
Loading historical data...
Loading historical data...
Loading historical data...
Loading historical data...

STARLINK-34050 Visibility forecast

Observer location: undefined°, undefined°

Span
Click to sort rows by Start time (UTC) header in descending order
Start Az.
Max El. time (UTC)
Max El. Az.
Max El.
End time (UTC)
End Az.
5 mins2025-07-01 22:26:24.498Z218.182° SW2025-07-01 22:28:24.498Z173.172° S31.624°2025-07-01 22:31:24.498Z85.13° E
5 mins2025-07-02 00:04:24.498Z275.998° WNW2025-07-02 00:06:24.498Z11.613° NNE40.045°2025-07-02 00:09:24.498Z69.851° E
4 mins2025-07-02 01:42:24.498Z303.894° NW2025-07-02 01:43:24.498Z336.536° NNW36.161°2025-07-02 01:46:24.498Z81.077° E
5 mins2025-07-02 03:19:24.498Z277.437° WNW2025-07-02 03:21:24.498Z193.885° SSW40.672°2025-07-02 03:24:24.498Z124.051° SE
|